Location: Dompnac
(44.5644°N, 4.1026°E)
Time: 10:17:08
(UTC+00:00)

Cosmos 2026 Rocket - Pass Details

Date: 19 September 2020
Orbit: 940 x 1000 km, 82.9° (Epoch: 29 October)

Event Time Altitude Azimuth Distance (km) Brightness Sun altitude
Rises 20:20:45 0° 350° (N) 3,719 7.6 -27.0°
Reaches altitude 10° 20:23:17 10° 350° (N) 2,771 6.9 -27.4°
Maximum altitude 20:29:40 80° 264° (W) 1,019 4.0 -28.3°
Enters shadow 20:30:53 60° 192° (SSW) 1,134 4.1 -28.5°
